23 de maio de 2022

Tempo Código Clima Temp. Visão Nuvens Vento METAR/SPECI
19:57
I
14 °C 2,2 km 1.500 ft 320°   320° 13 kt METAR EHLW 231757Z AUTO 32013KT 290V360 2200 -RA SCT003 SCT005 BKN015CB 14/14 Q0996 YLO
19:55
I
14 °C 2,1 km 1.500 ft 320°   320° 14 kt METAR EHLW 231755Z AUTO 32014KT 280V350 2100 RA FEW003 SCT005 BKN015CB 14/13 Q0996 YLO
19:33
I
15 °C 2,8 km 500 ft 320°   320° 11 kt METAR EHLW 231733Z AUTO 32011KT 290V010 2800 SHRA BKN005 BKN006 SCT015CB BKN020 15/14 Q0996 YLO
19:32
I
15 °C 3,1 km 3.600 ft 330°   330° 11 kt METAR EHLW 231732Z AUTO 33011KT 300V010 3100 -RA SCT005 SCT015CB BKN036 OVC041 15/14 Q0996 YLO
19:25
I
15 °C 3,5 km 3.900 ft 330°   330° 10 kt METAR EHLW 231725Z AUTO 33010KT 300V360 3500 -SHRA SCT015CB SCT019 OVC039 15/14 Q0996 RERA YLO
19:19
I
15 °C 3,7 km 1.500 ft 330°   330° 8 kt METAR EHLW 231719Z AUTO 33008KT 290V360 3700 -SHRA BKN015CB OVC018 15/14 Q0996 GRN
19:14
I
15 °C 3,4 km 1.500 ft 330°   330° 8 kt METAR EHLW 231714Z AUTO 33008KT 290V360 3400 -SHRA BKN015CB BKN018 BKN042 15/15 Q0996 YLO
19:03
I
15 °C 3,8 km 1.500 ft 340°   340° 8 kt METAR EHLW 231703Z AUTO 34008KT 300V010 3800 RA BKN015CB SCT043 BKN048 OVC052 15/15 Q0996 GRN
18:55
I
16 °C 3,2 km 1.500 ft 330°   330° 7 kt METAR EHLW 231655Z AUTO 33007KT 290V360 3200 RA BKN015CB SCT043 BKN048 OVC070 16/15 Q0996 YLO
18:41
I
16 °C 3,5 km 1.500 ft 330°   330° 7 kt METAR EHLW 231641Z AUTO 33007KT 300V360 3500 RA BKN015CB BKN050 BKN055 16/14 Q0996 YLO
18:38
I
16 °C 4 km 1.500 ft 330°   330° 7 kt METAR EHLW 231638Z AUTO 33007KT 4000 RA BKN015CB BKN054 BKN070 16/15 Q0996 GRN
18:25
I
16 °C 4,3 km 1.500 ft 340°   340° 7 kt METAR EHLW 231625Z AUTO 34007KT 280V360 4300 RA BKN015CB BKN059 OVC066 16/14 Q0997 GRN
18:18
I
16 °C 4,2 km 6.100 ft 340°   340° 6 kt METAR EHLW 231618Z AUTO 34006KT 280V360 4200 +RA SCT015CB SCT044 BKN061 OVC067 16/15 Q0997 GRN
18:12
I
16 °C 3,9 km 4.900 ft 320°   320° 8 kt METAR EHLW 231612Z AUTO 32008KT 280V350 3900 SHRA SCT015CB BKN049 OVC055 16/14 Q0997 GRN
18:07
M
16 °C 7 km 5.500 ft 320°   320° 8 kt METAR EHLW 231607Z AUTO 32008KT 290V360 7000 -SHRA FEW015CB SCT049 BKN055 OVC065 16/14 Q0997 WHT
17:56
M
16 °C 7 km 6.200 ft 320°   320° 9 kt METAR EHLW 231556Z AUTO 32009KT 270V360 7000 -RA FEW015CB SCT056 BKN062 16/15 Q0997 WHT
17:55
V
16 °C 8 km 5.600 ft 310°   310° 9 kt METAR EHLW 231555Z AUTO 31009KT 270V350 8000 -RA FEW015CB SCT048 BKN056 OVC067 16/14 Q0997 RERA REDZ BLU
17:44
V
17 °C 8 km 5.000 ft 300°   300° 8 kt METAR EHLW 231544Z AUTO 30008KT 270V340 8000 DZRA FEW015CB BKN050 OVC055 17/14 Q0997 BLU
17:35
M
17 °C 7 km 5.200 ft 300°   300° 8 kt METAR EHLW 231535Z AUTO 30008KT 270V340 7000 DZRA FEW015CB BKN052 OVC060 17/14 Q0997 WHT
17:26
M
17 °C 7 km 6.900 ft 290°   290° 8 kt METAR EHLW 231526Z AUTO 29008KT 260V330 7000 -RA FEW015CB OVC069 17/15 Q0997 WHT
17:25
V
17 °C 9 km 7.200 ft 290°   290° 8 kt METAR EHLW 231525Z AUTO 29008KT 260V330 9000 -RA FEW015CB OVC072 17/14 Q0997 RERA REDZ BLU
17:18
V
17 °C 10 km+ 7.300 ft 300°   300° 8 kt METAR EHLW 231518Z AUTO 30008KT 270V340 9999 -RA FEW015CB OVC073 17/14 Q0997 BLU
17:08
V
18 °C 10 km+ 7.200 ft 300°   300° 8 kt METAR EHLW 231508Z AUTO 30008KT 280V340 9999 DZRA OVC072 18/14 Q0997 BLU
16:55
V
18 °C 10 km+ 8.600 ft 310°   310° 9 kt METAR EHLW 231455Z AUTO 31009KT 280V340 9999 -DZ FEW035 SCT073 OVC086 18/14 Q0997 BLU
16:25
V
19 °C 10 km+ 9.400 ft 320°   320° 8 kt METAR EHLW 231425Z AUTO 32008KT 290V350 9999 SCT086 OVC094 19/15 Q0998 BLU
16:00
V
20 °C 10 km+ 9.600 ft 300°   300° 5 kt METAR EHLW 231400Z AUTO 30005KT 180V350 9999 BKN096 OVC100 20/15 Q0998 BLU BECMG 02007KT
15:55
V
20 °C 10 km+ 9.400 ft 290°   290° 7 kt METAR EHLW 231355Z AUTO 29007KT 190V320 9999 BKN094 OVC099 20/15 Q0998 BLU BECMG 02007KT
15:25
V
22 °C 10 km+ 8.900 ft 170°   170° 8 kt METAR EHLW 231325Z AUTO 17008KT 120V190 9999 BKN089 OVC094 22/12 Q0998 BLU NOSIG
14:55
V
23 °C 10 km+ 10.000 ft 150°   150° 10 kt METAR EHLW 231255Z AUTO 15010KT 110V200 9999 SCT098 OVC100 23/11 Q0999 BLU NOSIG
14:25
V
23 °C 10 km+ 9.200 ft 150°   150° 6 kt METAR EHLW 231225Z AUTO 15006KT 080V180 9999 BKN092 OVC098 23/12 Q0999 BLU NOSIG
13:55
V
23 °C 10 km+ 12.000 ft 150°   150° 9 kt METAR EHLW 231155Z AUTO 15009KT 070V210 9999 OVC120 23/12 Q1000 BLU NOSIG
13:25
V
22 °C 10 km+ 12.000 ft 140°   140° 9 kt METAR EHLW 231125Z AUTO 14009KT 110V200 9999 OVC120 22/12 Q1000 BLU NOSIG
12:55
V
22 °C 10 km+ 12.000 ft 140°   140° 7 kt METAR EHLW 231055Z AUTO 14007KT 100V170 9999 OVC120 22/13 Q1001 BLU NOSIG
12:25
V
22 °C 10 km+ 12.000 ft 150°   150° 8 kt METAR EHLW 231025Z AUTO 15008KT 100V190 9999 FEW098 OVC120 22/13 Q1001 BLU NOSIG
11:55
V
20 °C 10 km+ 11.000 ft 150°   150° 8 kt METAR EHLW 230955Z AUTO 15008KT 100V160 9999 OVC110 20/12 Q1002 BLU NOSIG
11:25
V
20 °C 10 km+ 12.000 ft 150°   150° 7 kt METAR EHLW 230925Z AUTO 15007KT 070V180 9999 OVC120 20/12 Q1002 BLU NOSIG
10:55
V
19 °C 10 km+ 12.000 ft 140°   140° 6 kt METAR EHLW 230855Z AUTO 14006KT 090V170 9999 OVC120 19/12 Q1002 BLU NOSIG
10:25
V
18 °C 10 km+ 14.000 ft 130°   130° 7 kt METAR EHLW 230825Z AUTO 13007KT 070V180 9999 OVC140 18/11 Q1003 BLU NOSIG
09:55
V
18 °C 10 km+ 13.000 ft 140°   140° 7 kt METAR EHLW 230755Z AUTO 14007KT 100V170 9999 OVC130 18/11 Q1003 BLU NOSIG
09:25
V
18 °C 10 km+ 12.000 ft 130°   130° 8 kt METAR EHLW 230725Z AUTO 13008KT 090V160 9999 OVC120 18/10 Q1003 BLU NOSIG
08:55
V
17 °C 10 km+ 19.000 ft 120°   120° 5 kt METAR EHLW 230655Z AUTO 12005KT 070V160 9999 OVC190 17/10 Q1004 BLU NOSIG
08:25
V
16 °C 10 km+ 23.000 ft 120°   120° 6 kt METAR EHLW 230625Z AUTO 12006KT 060V160 9999 OVC230 16/09 Q1004 BLU NOSIG
07:55
V
14 °C 10 km+ 20.000 ft 130°   130° 8 kt METAR EHLW 230555Z AUTO 13008KT 090V160 9999 OVC200 14/09 Q1004 BLU NOSIG
07:42
V
14 °C 10 km+ 20.000 ft 130°   130° 9 kt METAR EHLW 230542Z AUTO 13009KT 090V150 9999 OVC200 14/09 Q1005 BLU NOSIG
07:25
V
14 °C 10 km+ 20.000 ft 120°   120° 8 kt METAR EHLW 230525Z AUTO 12008KT 080V160 9999 OVC200 14/08 Q1005 BLU
06:55
V
13 °C 10 km+ 21.000 ft 120°   120° 8 kt METAR EHLW 230455Z AUTO 12008KT 080V160 9999 OVC210 13/08 Q1005 BLU
06:25
V
13 °C 10 km+ 22.000 ft 120°   120° 8 kt METAR EHLW 230425Z AUTO 12008KT 050V160 9999 OVC220 13/08 Q1006 BLU
05:55
V
13 °C 10 km+ 21.000 ft 120°   120° 7 kt METAR EHLW 230355Z AUTO 12007KT 070V150 9999 SCT110 OVC210 13/08 Q1006 BLU
05:25
V
13 °C 10 km+ 24.000 ft 120°   120° 7 kt METAR EHLW 230325Z AUTO 12007KT 030V150 9999 OVC240 13/08 Q1007 BLU
04:55
V
14 °C 10 km+ 12.000 ft 120°   120° 8 kt METAR EHLW 230255Z AUTO 12008KT 080V160 9999 BKN120 BKN290 14/08 Q1007 BLU
04:25
V
14 °C 10 km+ 13.000 ft 120°   120° 9 kt METAR EHLW 230225Z AUTO 12009KT 060V180 9999 OVC130 14/08 Q1007 BLU
03:55
V
15 °C 10 km+ 10.000 ft 120°   120° 11 kt METAR EHLW 230155Z AUTO 12011KT 080V160 9999 OVC100 15/08 Q1007 BLU
03:25
V
15 °C 10 km+ 11.000 ft 130°   130° 11 kt METAR EHLW 230125Z AUTO 13011KT 090V170 9999 OVC110 15/08 Q1008 BLU
02:55
V
14 °C 10 km+ 11.000 ft 120°   120° 12 kt METAR EHLW 230055Z AUTO 12012KT 080V150 9999 BKN110 OVC190 14/08 Q1008 BLU
02:25
V
14 °C 10 km+ 19.000 ft 130°   130° 11 kt METAR EHLW 230025Z AUTO 13011KT 090V160 9999 SCT120 OVC190 14/08 Q1009 BLU
01:55
V
15 °C 10 km+ 21.000 ft 120°   120° 10 kt METAR EHLW 222355Z AUTO 12010KT 080V160 9999 SCT120 OVC210 15/08 Q1009 BLU
01:25
V
15 °C 10 km+ 22.000 ft 130°   130° 10 kt METAR EHLW 222325Z AUTO 13010KT 080V160 9999 OVC220 15/08 Q1010 BLU
00:55
V
15 °C 10 km+ 23.000 ft 120°   120° 10 kt METAR EHLW 222255Z AUTO 12010KT 080V150 9999 OVC230 15/08 Q1010 BLU
00:25
V
15 °C 10 km+ 24.000 ft 120°   120° 10 kt METAR EHLW 222225Z AUTO 12010KT 060V150 9999 SCT073 OVC240 15/08 Q1010 BLU

22 de maio de 2022

Tempo Código Clima Temp. Visão Nuvens Vento METAR/SPECI
23:55
V
15 °C 10 km+ 24.000 ft 120°   120° 7 kt METAR EHLW 222155Z AUTO 12007KT 070V150 9999 OVC240 15/09 Q1010 BLU
23:25
V
16 °C 10 km+ 25.000 ft 120°   120° 9 kt METAR EHLW 222125Z AUTO 12009KT 060V160 9999 FEW098 OVC250 16/09 Q1010 BLU
22:55
V
16 °C 10 km+ 10.000 ft 110°   110° 9 kt METAR EHLW 222055Z AUTO 11009KT 050V160 9999 BKN100 OVC260 16/09 Q1010 BLU
22:25
V
17 °C 10 km+ 26.000 ft 110°   110° 7 kt METAR EHLW 222025Z AUTO 11007KT 050V160 9999 SCT100 OVC260 17/09 Q1011 BLU
21:55
V
17 °C 10 km+ 30.000 ft 120°   120° 7 kt METAR EHLW 221955Z AUTO 12007KT 050V170 9999 OVC300 17/09 Q1011 BLU
21:25
V
17 °C 10 km+ 33.000 ft 120°   120° 7 kt METAR EHLW 221925Z AUTO 12007KT 080V160 9999 OVC330 17/09 Q1011 BLU
20:55
V
18 °C 10 km+ 31.000 ft 130°   130° 7 kt METAR EHLW 221855Z AUTO 13007KT 090V150 9999 OVC310 18/09 Q1011 BLU
20:25
V
18 °C 10 km+ 30.000 ft 140°   140° 8 kt METAR EHLW 221825Z AUTO 14008KT 090V170 9999 OVC300 18/09 Q1012 BLU
19:55
V
19 °C 10 km+ 30.000 ft Var   Var 3 kt METAR EHLW 221755Z AUTO VRB03KT 9999 OVC300 19/09 Q1012 BLU
19:25
V
19 °C 10 km+ 10.000 ft 050°   050° 4 kt METAR EHLW 221725Z AUTO 05004KT 340V080 9999 FEW046 SCT052 OVC100 19/11 Q1012 BLU
18:55
V
18 °C 10 km+ 4.600 ft 030°   030° 7 kt METAR EHLW 221655Z AUTO 03007KT 340V090 9999 FEW039 BKN046 BKN110 18/12 Q1012 BLU
18:25
V
19 °C 10 km+ 4.400 ft 030°   030° 9 kt METAR EHLW 221625Z AUTO 03009KT 350V060 9999 SCT037 BKN044 BKN330 19/12 Q1013 BLU
17:55
V
18 °C 10 km+ 10.000 ft 020°   020° 8 kt METAR EHLW 221555Z AUTO 02008KT 350V070 9999 FEW052 BKN100 OVC280 18/11 Q1013 BLU
17:25
V
18 °C 10 km+ 5.300 ft 040°   040° 6 kt METAR EHLW 221525Z AUTO 04006KT 350V060 9999 BKN053 BKN280 BKN350 18/12 Q1013 BLU
16:55
V
19 °C 10 km+ 5.300 ft 080°   080° 4 kt METAR EHLW 221455Z AUTO 08004KT 360V100 9999 BKN053 BKN270 19/11 Q1014 BLU
16:25
V
19 °C 10 km+ 5.000 ft 080°   080° 4 kt METAR EHLW 221425Z AUTO 08004KT 360V160 9999 SCT045 BKN050 BKN057 19/10 Q1014 BLU
15:55
V
19 °C 10 km+ 27.000 ft 180°   180° 7 kt METAR EHLW 221355Z AUTO 18007KT 9999 BKN270 19/09 Q1014 BLU
15:25
V
19 °C 10 km+ 29.000 ft 150°   150° 5 kt METAR EHLW 221325Z AUTO 15005KT 140V260 9999 OVC290 19/06 Q1014 BLU
14:55
V
19 °C 10 km+ 4.700 ft 210°   210° 5 kt METAR EHLW 221255Z AUTO 21005KT 110V250 9999 BKN047 BKN350 19/07 Q1015 BLU
14:25
V
19 °C 10 km+ 27.000 ft 220°   220° 5 kt METAR EHLW 221225Z AUTO 22005KT 180V290 9999 OVC270 19/08 Q1015 BLU
13:55
V
19 °C 10 km+ 34.000 ft 200°   200° 5 kt METAR EHLW 221155Z AUTO 20005KT 140V260 9999 FEW046 BKN340 19/08 Q1015 BLU
13:25
V
18 °C 10 km+ 34.000 ft 200°   200° 5 kt METAR EHLW 221125Z AUTO 20005KT 130V250 9999 OVC340 18/09 Q1016 BLU
12:55
V
18 °C 10 km+ - 190°   190° 4 kt METAR EHLW 221055Z AUTO 19004KT 110V260 9999 SCT036 18/08 Q1016 BLU
12:25
V
18 °C 10 km+ 3.300 ft 230°   230° 6 kt METAR EHLW 221025Z AUTO 23006KT 180V260 9999 SCT029 BKN033 BKN039 18/10 Q1016 BLU
11:55
V
18 °C 10 km+ 22.000 ft 210°   210° 6 kt METAR EHLW 220955Z AUTO 21006KT 160V270 9999 BKN220 BKN270 18/10 Q1016 BLU
11:25
V
17 °C 10 km+ 26.000 ft 210°   210° 7 kt METAR EHLW 220925Z AUTO 21007KT 140V240 9999 SCT027 SCT036 BKN260 17/11 Q1017 BLU
10:55
V
17 °C 10 km+ - 220°   220° 7 kt METAR EHLW 220855Z AUTO 22007KT 170V270 9999 FEW028 17/10 Q1017 BLU
10:25
V
17 °C 10 km+ 35.000 ft 220°   220° 6 kt METAR EHLW 220825Z AUTO 22006KT 160V250 9999 OVC350 17/09 Q1017 BLU
09:55
V
16 °C 10 km+ - 220°   220° 7 kt METAR EHLW 220755Z AUTO 22007KT 180V240 9999 NCD 16/10 Q1017 BLU
09:25
V
15 °C 10 km+ - 200°   200° 7 kt METAR EHLW 220725Z AUTO 20007KT 170V240 9999 NCD 15/10 Q1017 BLU
08:55
V
14 °C 10 km+ - 200°   200° 6 kt METAR EHLW 220655Z AUTO 20006KT 170V240 9999 NCD 14/11 Q1017 BLU
08:25
V
13 °C 10 km+ - 180°   180° 5 kt METAR EHLW 220625Z AUTO 18005KT 160V220 9999 NCD 13/11 Q1017 BLU
07:55
V
12 °C 10 km+ - 180°   180° 4 kt METAR EHLW 220555Z AUTO 18004KT 130V210 9999 NCD 12/10 Q1017 BLU
07:35
V
11 °C 10 km+ - 170°   170° 4 kt METAR EHLW 220535Z AUTO 17004KT 140V210 9999 NCD 11/10 Q1017 BLU
07:25
V
11 °C 8 km - 180°   180° 4 kt METAR EHLW 220525Z AUTO 18004KT 140V200 8000 BR NCD 11/10 Q1017 BLU
07:08
M
11 °C 5 km - 170°   170° 5 kt METAR EHLW 220508Z AUTO 17005KT 130V190 5000 BR SCT310 11/10 Q1017 WHT
07:04
I
11 °C 4,6 km 31.000 ft 180°   180° 4 kt METAR EHLW 220504Z AUTO 18004KT 130V190 4600 BR BKN310 11/10 Q1017 GRN
06:55
I
10 °C 1,6 km - 180°   180° 5 kt METAR EHLW 220455Z AUTO 18005KT 140V200 1600 BR FEW320 10/10 Q1017 YLO
06:41
L
10 °C 1 km - 180°   180° 5 kt METAR EHLW 220441Z AUTO 18005KT 130V190 1000 BR SCT230 10/09 Q1017 AMB
06:33
L
9 °C 600 m 23.000 ft 180°   180° 3 kt METAR EHLW 220433Z AUTO 18003KT 0600 FG OVC230 09/09 Q1017 RED
06:29
L
9 °C 800 m 22.000 ft 170°   170° 3 kt METAR EHLW 220429Z AUTO 17003KT 0800 FG OVC220 09/09 Q1017 AMB
06:25
I
9 °C 2,9 km 22.000 ft Var   Var 2 kt METAR EHLW 220425Z AUTO VRB02KT 2900 BR OVC220 09/09 Q1017 YLO
06:21
I
9 °C 2,5 km 22.000 ft Var   Var 2 kt METAR EHLW 220421Z AUTO VRB02KT 2500 BR OVC220 09/09 Q1017 YLO
06:11
L
9 °C 900 m 23.000 ft Var   Var 2 kt METAR EHLW 220411Z AUTO VRB02KT 0900 FG OVC230 09/08 Q1017 AMB
06:04
I
8 °C 2,1 km 23.000 ft 180°   180° 3 kt METAR EHLW 220404Z AUTO 18003KT 070V170 2100 BR OVC230 08/08 Q1017 YLO
05:55
I
9 °C 4,6 km 23.000 ft 150°   150° 3 kt METAR EHLW 220355Z AUTO 15003KT 110V170 4600 BR OVC230 09/08 Q1017 GRN
05:44
I
8 °C 2,1 km 23.000 ft 140°   140° 3 kt METAR EHLW 220344Z AUTO 14003KT 2100 BR OVC230 08/08 Q1017 YLO
05:39
M
8 °C 6 km 23.000 ft 150°   150° 2 kt METAR EHLW 220339Z AUTO 15002KT 6000 BR OVC230 08/08 Q1017 WHT
05:25
I
6 °C 3,1 km - Var   Var 2 kt METAR EHLW 220325Z AUTO VRB02KT 3100 BR SCT230 SCT320 06/06 Q1018 YLO
05:17
I
6 °C 1,5 km 32.000 ft Var   Var 2 kt METAR EHLW 220317Z AUTO VRB02KT 1500 BR FEW036 BKN320 06/06 Q1018 AMB
05:10
I
6 °C 2,9 km 32.000 ft 120°   120° 1 kt METAR EHLW 220310Z AUTO 12001KT 2900 BR FEW036 SCT240 BKN320 06/06 Q1018 YLO
05:09
M
6 °C 5 km 23.000 ft 120°   120° 1 kt METAR EHLW 220309Z AUTO 12001KT 5000 BR FEW036 BKN230 BKN320 06/06 Q1018 WHT
04:56
I
6 °C 2,2 km 23.000 ft Var   Var 2 kt METAR EHLW 220256Z AUTO VRB02KT 2200 BR OVC230 06/06 Q1018 YLO
04:55
L
7 °C 1,2 km 23.000 ft 120°   120° 2 kt METAR EHLW 220255Z AUTO 12002KT 1200 BR OVC230 07/06 Q1018 AMB
04:44
L
8 °C 1,2 km 23.000 ft 150°   150° 2 kt METAR EHLW 220244Z AUTO 15002KT 1200 BR OVC230 08/08 Q1018 AMB
04:40
I
8 °C 2,6 km 24.000 ft 170°   170° 2 kt METAR EHLW 220240Z AUTO 17002KT 2600 BR OVC240 08/08 Q1018 YLO
04:25
M
8 °C 5 km 27.000 ft 180°   180° 2 kt METAR EHLW 220225Z AUTO 18002KT 5000 BR BKN270 BKN340 08/07 Q1018 WHT
04:10
M
8 °C 6 km 31.000 ft 170°   170° 3 kt METAR EHLW 220210Z AUTO 17003KT 6000 BR SCT260 BKN310 08/08 Q1018 WHT
04:09
V
8 °C 8 km 26.000 ft 170°   170° 4 kt METAR EHLW 220209Z AUTO 17004KT 8000 BR BKN260 BKN310 08/08 Q1018 BLU
03:56
M
8 °C 7 km - 170°   170° 3 kt METAR EHLW 220156Z AUTO 17003KT 150V210 7000 BR NCD 08/08 Q1018 WHT
03:55
V
8 °C 8 km - 180°   180° 3 kt METAR EHLW 220155Z AUTO 18003KT 8000 BR NCD 08/08 Q1018 BLU
03:41
I
8 °C 3,7 km - 180°   180° 3 kt METAR EHLW 220141Z AUTO 18003KT 3700 BR FEW310 08/08 Q1018 GRN
03:25
M
7 °C 6 km - 160°   160° 2 kt METAR EHLW 220125Z AUTO 16002KT 6000 BR NCD 07/07 Q1018 WHT
02:55
M
9 °C 7 km - 170°   170° 3 kt METAR EHLW 220055Z AUTO 17003KT 090V160 7000 BR FEW220 09/08 Q1018 WHT
02:36
M
9 °C 6 km 22.000 ft 190°   190° 3 kt METAR EHLW 220036Z AUTO 19003KT 6000 BR OVC220 09/08 Q1018 WHT
02:25
M
8 °C 5 km - 180°   180° 4 kt METAR EHLW 220025Z AUTO 18004KT 180V260 5000 BR SCT250 08/08 Q1019 WHT
02:13
I
9 °C 4,9 km 28.000 ft 170°   170° 3 kt METAR EHLW 220013Z AUTO 17003KT 4900 BR BKN280 09/08 Q1019 GRN
02:03
M
9 °C 5 km - 190°   190° 3 kt METAR EHLW 220003Z AUTO 19003KT 130V190 5000 BR NCD 09/08 Q1019 WHT
01:55
I
8 °C 4,8 km - 200°   200° 3 kt METAR EHLW 212355Z AUTO 20003KT 4800 BR SCT250 08/08 Q1019 GRN
01:33
I
9 °C 4,5 km 25.000 ft 200°   200° 4 kt METAR EHLW 212333Z AUTO 20004KT 4500 BR OVC250 09/08 Q1019 GRN
01:29
M
9 °C 7 km 27.000 ft 180°   180° 4 kt METAR EHLW 212329Z AUTO 18004KT 7000 BR OVC270 09/08 Q1019 WHT
01:25
V
8 °C 8 km 28.000 ft 180°   180° 3 kt METAR EHLW 212325Z AUTO 18003KT 8000 BR OVC280 08/08 Q1019 BLU
01:17
M
8 °C 7 km 27.000 ft 180°   180° 2 kt METAR EHLW 212317Z AUTO 18002KT 7000 BR OVC270 08/08 Q1019 WHT
00:55
V
9 °C 10 km+ 24.000 ft 210°   210° 3 kt METAR EHLW 212255Z AUTO 21003KT 9999 OVC240 09/08 Q1019 BLU
00:25
V
9 °C 10 km+ - 170°   170° 1 kt METAR EHLW 212225Z AUTO 17001KT 9999 NCD 09/09 Q1019 BLU

21 de maio de 2022

Tempo Código Clima Temp. Visão Nuvens Vento METAR/SPECI
23:55
V
9 °C 10 km+ 12.000 ft 180°   180° 2 kt METAR EHLW 212155Z AUTO 18002KT 9999 BKN120 09/08 Q1019 BLU
23:25
V
10 °C 10 km+ - 190°   190° 2 kt METAR EHLW 212125Z AUTO 19002KT 9999 SCT120 10/09 Q1019 BLU
22:55
V
10 °C 10 km+ - 240°   240° 3 kt METAR EHLW 212055Z AUTO 24003KT 9999 NCD 10/09 Q1020 BLU
22:25
V
11 °C 10 km+ - 230°   230° 3 kt METAR EHLW 212025Z AUTO 23003KT 9999 SCT100 11/09 Q1020 BLU
21:55
V
12 °C 10 km+ 13.000 ft 270°   270° 4 kt METAR EHLW 211955Z AUTO 27004KT 220V290 9999 OVC130 12/09 Q1020 BLU
21:25
V
13 °C 10 km+ 13.000 ft 270°   270° 5 kt METAR EHLW 211925Z AUTO 27005KT 240V300 9999 OVC130 13/09 Q1020 BLU
20:55
V
13 °C 10 km+ 13.000 ft 290°   290° 7 kt METAR EHLW 211855Z AUTO 29007KT 250V320 9999 OVC130 13/09 Q1020 BLU
20:34
V
13 °C 10 km+ 13.000 ft 290°   290° 7 kt METAR EHLW 211834Z AUTO 29007KT 250V310 9999 FEW018 OVC130 13/09 Q1020 BLU
20:25
M
13 °C 10 km+ 1.900 ft 270°   270° 7 kt METAR EHLW 211825Z AUTO 27007KT 250V320 9999 BKN019 BKN022 BKN026 13/09 Q1020 WHT
20:16
V
13 °C 10 km+ 14.000 ft 270°   270° 8 kt METAR EHLW 211816Z AUTO 27008KT 260V320 9999 SCT019 OVC140 13/09 Q1020 WHT
19:55
V
14 °C 10 km+ 13.000 ft 280°   280° 9 kt METAR EHLW 211755Z AUTO 28009KT 240V300 9999 OVC130 14/09 Q1020 BLU
19:36
V
14 °C 10 km+ 13.000 ft 270°   270° 11 kt METAR EHLW 211736Z AUTO 27011KT 240V310 9999 FEW021 OVC130 14/08 Q1020 BLU
19:25
V
14 °C 10 km+ 11.000 ft 270°   270° 10 kt METAR EHLW 211725Z AUTO 27010KT 9999 SCT020 OVC110 14/09 Q1020 WHT
18:55
V
14 °C 10 km+ 13.000 ft 270°   270° 11 kt METAR EHLW 211655Z AUTO 27011KT 230V300 9999 FEW020 SCT028 OVC130 14/09 Q1020 BLU
18:25
V
14 °C 10 km+ 13.000 ft 260°   260° 12 kt METAR EHLW 211625Z AUTO 26012KT 230V300 9999 FEW021 SCT025 OVC130 14/09 Q1020 BLU
18:12
V
15 °C 10 km+ 14.000 ft 260°   260° 13 kt METAR EHLW 211612Z AUTO 26013KT 230V310 9999 FEW020 SCT025 OVC140 15/09 Q1020 BLU
17:55
M
14 °C 10 km+ 2.400 ft 270°   270° 9 kt METAR EHLW 211555Z AUTO 27009KT 230V300 9999 FEW019 BKN024 OVC140 14/09 Q1020 WHT
17:25
V
14 °C 10 km+ 14.000 ft 290°   290° 11 kt METAR EHLW 211525Z AUTO 29011KT 220V310 9999 FEW018 SCT022 OVC140 14/10 Q1020 WHT
16:55
V
15 °C 10 km+ 4.100 ft 290°   290° 11 kt METAR EHLW 211455Z AUTO 29011KT 240V330 9999 FEW016 SCT028 BKN041 15/10 Q1020 BLU
Dados mais antigos

Baixe nosso aplicativo

Fácil acesso a todas as condições meteorológicas da aviação no seu celular e no seu tablet.
Com muitos recursos não disponíveis no site, como suporte offline e uma lista pessoal de aeroportos.

Nós e terceiros acompanhamos seu comportamento na internet em nosso site com cookies. Se você continuar, nós assumimos que você concorda com nossa política de cookies. Saiba mais